Regional Weather Roundup
Issued by NWS

Home | Current Version | Previous Version | Graphics & Text | Print | Product List | Glossary On
Versions: 1 2 3 4 5 6 7 8 9 10 11 12 13 14 15 16 17 18 19 20 21 22 23 24 25 26 27 28 29 30 31 32 33 34 35 36 37 38 39 40 41 42 43 44 45 46 47 48 49 50
000
ASUS43 KMKX 311600
RWRWI

WISCONSIN REGIONAL WEATHER ROUNDUP
NATIONAL WEATHER SERVICE MILWAUKEE/SULLIVAN WI
1100 AM CDT WED AUG 31 2016

NOTE: "FAIR" INDICATES FEW OR NO CLOUDS BELOW 12,000 FEET WITH NO
SIGNIFICANT WEATHER AND/OR OBSTRUCTIONS TO VISIBILITY.

WIZ001-002-006>008-014>016-023>028-311700-
NORTHWEST WISCONSIN

CITY           SKY/WX    TMP DP  RH WIND       PRES   REMARKS
SUPERIOR ARPT  SUNNY     69  56  63 CALM      30.21S
ASHLAND        MOSUNNY   71  58  63 VRB5      30.21R
HAYWARD        SUNNY     69  53  56 N7        30.22S
SIREN          SUNNY     67  52  58 N5        30.22S
CUMBERLAND     SUNNY     66  52  59 NW6       30.22S
RICE LAKE      SUNNY     68  55  62 NW3       30.22F
CHETEK         NOT AVBL
LADYSMITH      SUNNY     69  56  63 N3        30.22S
EAU CLAIRE     NOT AVBL
MENOMONIE      SUNNY     70  55  58 NW6       30.21R
NEW RICHMOND   SUNNY     71  54  55 NW5       30.22S
OSCEOLA        SUNNY     67  57  68 CALM      30.25R
$$

WIZ003>005-009-010-017-018-311700-
NORTH CENTRAL WISCONSIN

CITY           SKY/WX    TMP DP  RH WIND       PRES   REMARKS
MANITOWISH WTR NOT AVBL
ARBOR VITAE    MOSUNNY   69  56  61 N12       30.20R
WOODRUFF       MOSUNNY   69  56  61 N12       30.20R
RHINELANDER    PTSUNNY   69  53  56 N9        30.20R
EAGLE RIVER    PTSUNNY   66  51  58 N12       30.19R
LAND O LAKES   PTSUNNY   68  54  61 NW7       30.20S
PHILLIPS       MOSUNNY   66  54  64 N8        30.20S
TOMAHAWK       SUNNY     68  52  57 N6        30.20R
MEDFORD        SUNNY     68  53  59 N8        30.19S
MERRILL        SUNNY     68  55  61 NE7       30.19S
$$

WIZ029-030-035-036-043>047-311700-
CENTRAL WISCONSIN

CITY           SKY/WX    TMP DP  RH WIND       PRES   REMARKS
WAUSAU         SUNNY     70  52  52 VRB7      30.16S
MOSINEE        SUNNY     70  55  60 N9        30.19R
MARSHFIELD     SUNNY     72  51  47 N9        30.17S
STEVENS POINT  SUNNY     66  54  65 CALM      30.17F
WAUPACA        SUNNY     72  53  51 NW6       30.16S
WAUTOMA        SUNNY     72  53  51 N5        30.16S
WISC RAPIDS    SUNNY     72  57  59 VRB5      30.18S
CAMP DOUGLAS   NOT AVBL
$$

WIZ011>013-019>022-031-037>040-048>050-311700-
NORTHEAST WISCONSIN

CITY           SKY/WX    TMP DP  RH WIND       PRES   REMARKS
ANTIGO         SUNNY     67  55  63 CALM      30.18S
SHAWANO        SUNNY     71  56  59 CALM      30.15S
OCONTO         NOT AVBL
STURGEON BAY   SUNNY     69  57  65 NW8       30.14S
GREEN BAY      SUNNY     70  59  68 NW9       30.14S
MANITOWOC      NOT AVBL
APPLETON       MOSUNNY  N/A N/A N/A VRB5      30.13F
CLINTONVILLE   SUNNY     70  54  56 NW6       30.14F
OSHKOSH        SUNNY     72  52  49 N8        30.13S
$$

WIZ032>034-041-042-053>061-311700-
SOUTHWEST WISCONSIN

CITY           SKY/WX    TMP DP  RH WIND       PRES   REMARKS
LA CROSSE      SUNNY     71  59  65 NW8       30.17S
SPARTA         SUNNY     68  57  68 NW6       30.18S
VIROQUA        SUNNY     70  55  58 NE5       30.19R
BOSCOBEL       SUNNY     73  57  57 MISG      30.16S
PRAIRIE DU CHI SUNNY     71  51  48 N5        30.16S
PLATTEVILLE    MOSUNNY   68  65  88 N8        30.16R
$$

WIZ056-057-062-063-064-067-068-311700-
SOUTH CENTRAL WISCONSIN

CITY           SKY/WX    TMP DP  RH WIND       PRES   REMARKS
REEDSBURG      NOT AVBL
BARABOO/DELLS  SUNNY     69  51  53 NE6       30.16R
LONE ROCK      NOT AVBL
MINERAL POINT  MOSUNNY   72  63  73 N7        30.16R
MADISON        MOSUNNY   71  56  58 NE10      30.14R
MIDDLETON      SUNNY     72  58  63 N9        30.15R
WATERTOWN      SUNNY     70  60  69 N12       30.12S
MONROE         PTSUNNY   68  61  77 N8        30.13S
JANESVILLE     MOSUNNY   73  59  60 N6        30.11S
$$

WIZ051-052-058>065-066-070>072-311700-
SOUTHEAST WISCONSIN

CITY           SKY/WX    TMP DP  RH WIND       PRES   REMARKS
MILWAUKEE      MOSUNNY   72  59  63 NE16G22   30.11R
WAUKESHA       SUNNY     70  55  60 N9        30.13S
MILWAUKEE/TIMM NOT AVBL
RACINE         CLOUDY    70  61  73 N15G23    30.12R
BURLINGTON     MOSUNNY   70  58  65 NE8       30.11R
KENOSHA        MOSUNNY   71  62  73 NE10      30.10S
FOND DU LAC    SUNNY     73  55  53 NE9       30.14R
SHEBOYGAN      SUNNY     73  55  53 N13       30.12R
WEST BEND      SUNNY     70  54  56 NE8       30.12S
JUNEAU         SUNNY     69  57  67 N7        30.15R
$$

LSZ147-162-311700-
LAKE SUPERIOR

STATION/POSITION TIME  TEMP    WIND        PRES    WAVE
                       AIR SEA DIR/SP/G            HT/PER
                 (UTC) (F)     (DEG/KT/KT) (MB)    (FT/S)
W MID LAKE BUOY  1450   65 67  340/  8/ 10 1021.4R   1/ 3
DEVILS ISLAND    1500   64     340/  6/  8 1022.6R
PORT WING        1540   65     270/  6/  7 1023.0S
SAXON HARBOR     1540   66     300/  4/  5 1022.7R
$$

LMZ867-665-643>646-311700-
LAKE MICHIGAN

STATION/POSITION TIME  TEMP    WIND        PRES    WAVE
                       AIR SEA DIR/SP/G            HT/PER
                 (UTC) (F)     (DEG/KT/KT) (MB)    (FT/S)
CHAMBERS ISLAND  1500   69     350/  5/  7 1020.0R
N MID LAKE BUOY  1450   67 71  340/ 14/ 14 1018.7R   2/ 3
NORTHPORT PIER   1500   67     350/ 10/ 13 1019.6S
SISTER BAY       1407   69     360/ 13/ 15   N/A
ALGOMA LAKESHORE 1415          340/  7/  9   N/A
KEWAUNEE LAKESHO 1500   69     340/  5/  6 1019.6R
SHEBOYGAN LAKESH 1500   64     350/ 11/ 12 1019.2S
PORT WASHINGTON  1510   71      30/  8/ 12 1020.3R
ATWATER BUOY     1500   65     360/ 12/ 14   N/A
MILWAUKEE LAKESH 1510   67     360/ 14/ 17   N/A
S MID LAKE BUOY  1450   70 75   40/ 17/ 21 1017.0R   4/ 6
KENOSHA   LAKESH 1500   67     360/ 14/ 16 1018.6R
$$

TC  - TEMPERATURE IN CELSIUS
VSB - VISIBILITY IN STATUTE MILES
WCI - WIND CHILL INDEX
HX  - HEAT INDEX





USA.gov is the U.S. government's official web portal to all federal, state and local government web resources and services.